DAL823 SBGL-KMIA

Flight info

Callsign DAL823
Flight time N/A
Altitude 32000
Route EDNAM UM409 MOLTI UZ33 UGUGA UM409 VUMPI UL795 ALTIB UM779 ZEUSS VIICE2
Aircraft B773/H-VGDW/C

Departure

Time 2026-05-06 12:27
Airport Rio Galeão – Tom Jobim International Airport (SBGL)

Arrival

Time N/A
Airport Miami International Airport (KMIA)
Time Latitude Longitude Altitude Speed Heading
2026-05-06 11:50 -22.81343 -43.24844 26 ft 0 kts 97°
2026-05-06 12:14 -22.81342 -43.24848 26 ft 2 kts 97°
2026-05-06 12:15 -22.81340 -43.24865 7 ft 2 kts 97°
2026-05-06 12:15 -22.81338 -43.24883 7 ft 2 kts 97°
2026-05-06 12:15 -22.81331 -43.24898 38 ft 2 kts 168°
2026-05-06 12:15 -22.81333 -43.24899 26 ft 2 kts 178°
2026-05-06 12:16 -22.81340 -43.24899 26 ft 0 kts 184°
2026-05-06 12:19 -22.81360 -43.24901 28 ft 10 kts 184°
2026-05-06 12:19 -22.81431 -43.24909 26 ft 10 kts 194°
2026-05-06 12:19 -22.81481 -43.24960 29 ft 10 kts 251°
2026-05-06 12:20 -22.81495 -43.25036 29 ft 10 kts 240°
2026-05-06 12:20 -22.81548 -43.25088 30 ft 10 kts 218°
2026-05-06 12:20 -22.81603 -43.25138 30 ft 10 kts 234°
2026-05-06 12:20 -22.81593 -43.25210 29 ft 10 kts 303°
2026-05-06 12:21 -22.81549 -43.25277 30 ft 13 kts 306°
2026-05-06 12:21 -22.81487 -43.25371 29 ft 16 kts 305°
2026-05-06 12:21 -22.81423 -43.25468 29 ft 16 kts 306°
2026-05-06 12:21 -22.81359 -43.25565 28 ft 16 kts 306°
2026-05-06 12:22 -22.81295 -43.25662 29 ft 16 kts 306°
2026-05-06 12:22 -22.81229 -43.25760 31 ft 14 kts 306°
2026-05-06 12:22 -22.81187 -43.25822 29 ft 10 kts 316°
2026-05-06 12:22 -22.81122 -43.25814 26 ft 10 kts 31°
2026-05-06 12:23 -22.81064 -43.25770 26 ft 11 kts 36°
2026-05-06 12:23 -22.80984 -43.25708 27 ft 15 kts 36°
2026-05-06 12:23 -22.80901 -43.25644 27 ft 15 kts 35°
2026-05-06 12:23 -22.80818 -43.25579 27 ft 15 kts 36°
2026-05-06 12:24 -22.80738 -43.25518 27 ft 15 kts 35°
2026-05-06 12:24 -22.80652 -43.25452 27 ft 15 kts 35°
2026-05-06 12:24 -22.80582 -43.25391 33 ft 12 kts 41°
2026-05-06 12:24 -22.80502 -43.25391 32 ft 12 kts 331°
2026-05-06 12:25 -22.80425 -43.25431 33 ft 12 kts 329°
2026-05-06 12:25 -22.80353 -43.25482 33 ft 12 kts 326°
2026-05-06 12:25 -22.80275 -43.25514 30 ft 12 kts
2026-05-06 12:25 -22.80194 -43.25482 29 ft 12 kts 36°
2026-05-06 12:26 -22.80159 -43.25398 30 ft 12 kts 74°
2026-05-06 12:26 -22.80102 -43.25177 30 ft 64 kts 74°
2026-05-06 12:26 -22.79907 -43.24423 37 ft 142 kts 74°
2026-05-06 12:26 -22.79571 -43.23140 42 ft 213 kts 73°
2026-05-06 12:27 -22.79158 -43.21565 798 ft 225 kts 75°
2026-05-06 12:27 -22.78784 -43.19904 1938 ft 229 kts 76°
2026-05-06 12:27 -22.78413 -43.18178 2941 ft 242 kts 77°
2026-05-06 12:27 -22.78044 -43.16307 3693 ft 267 kts 78°
2026-05-06 12:28 -22.77629 -43.14201 4053 ft 307 kts 78°
2026-05-06 12:28 -22.77210 -43.11972 5036 ft 284 kts 79°
2026-05-06 12:28 -22.76844 -43.09919 5705 ft 273 kts 80°
2026-05-06 12:28 -22.76440 -43.07872 6422 ft 284 kts 76°
2026-05-06 12:29 -22.75963 -43.05788 7392 ft 283 kts 82°
2026-05-06 12:29 -22.76047 -43.03679 8373 ft 281 kts 110°
2026-05-06 12:29 -22.77051 -43.01885 9205 ft 283 kts 134°
2026-05-06 12:29 -22.78620 -43.00606 9990 ft 284 kts 148°
2026-05-06 12:30 -22.80325 -42.99526 10723 ft 285 kts 148°
2026-05-06 12:30 -22.82073 -42.98428 11231 ft 295 kts 148°
2026-05-06 12:30 -22.83982 -42.97517 11703 ft 305 kts 169°
2026-05-06 12:30 -22.86083 -42.97571 12178 ft 314 kts 197°
2026-05-06 12:31 -22.88032 -42.98693 12717 ft 320 kts 217°
2026-05-06 12:31 -22.89751 -43.00280 13249 ft 329 kts 229°
2026-05-06 12:31 -22.90860 -43.02452 13703 ft 335 kts 258°
2026-05-06 12:31 -22.90899 -43.04970 14206 ft 337 kts 286°
2026-05-06 12:32 -22.89887 -43.07237 14680 ft 338 kts 310°
2026-05-06 12:32 -22.88176 -43.08979 15142 ft 342 kts 326°
2026-05-06 12:32 -22.86080 -43.10214 15565 ft 346 kts 339°
2026-05-06 12:32 -22.83773 -43.11059 16024 ft 351 kts 344°
2026-05-06 12:33 -22.81396 -43.11762 16473 ft 356 kts 345°
2026-05-06 12:33 -22.78983 -43.12436 16953 ft 361 kts 345°
2026-05-06 12:33 -22.76564 -43.13117 17415 ft 365 kts 345°
2026-05-06 12:33 -22.74071 -43.13838 17879 ft 369 kts 344°
2026-05-06 12:34 -22.71618 -43.14565 18343 ft 372 kts 343°
2026-05-06 12:34 -22.69119 -43.15319 18770 ft 375 kts 343°
2026-05-06 12:34 -22.66599 -43.16090 19168 ft 377 kts 343°
2026-05-06 12:34 -22.64035 -43.16879 19595 ft 379 kts 343°
2026-05-06 12:35 -22.61497 -43.17665 20018 ft 381 kts 343°
2026-05-06 12:35 -22.58974 -43.18446 20428 ft 382 kts 343°
2026-05-06 12:35 -22.56379 -43.19249 20861 ft 383 kts 343°
2026-05-06 12:35 -22.53824 -43.20040 21259 ft 385 kts 343°
2026-05-06 12:36 -22.51233 -43.20843 21656 ft 386 kts 343°
2026-05-06 12:36 -22.48653 -43.21642 22041 ft 386 kts 343°
2026-05-06 12:36 -22.46064 -43.22443 22444 ft 387 kts 343°
2026-05-06 12:36 -22.43481 -43.23241 22830 ft 386 kts 343°
2026-05-06 12:37 -22.40896 -43.24040 23209 ft 387 kts 343°
2026-05-06 12:37 -22.38302 -43.24841 23511 ft 389 kts 342°
2026-05-06 12:37 -22.35695 -43.25646 23809 ft 391 kts 343°
2026-05-06 12:37 -22.33073 -43.26456 23986 ft 395 kts 342°
2026-05-06 12:38 -22.30409 -43.27280 24115 ft 401 kts 342°
2026-05-06 12:38 -22.27715 -43.28111 24242 ft 406 kts 342°
2026-05-06 12:38 -22.24976 -43.28957 24375 ft 411 kts 342°
2026-05-06 12:38 -22.22217 -43.29808 24506 ft 417 kts 342°
2026-05-06 12:39 -22.19406 -43.30674 24620 ft 422 kts 342°
2026-05-06 12:39 -22.16572 -43.31546 24768 ft 427 kts 342°
2026-05-06 12:39 -22.13704 -43.32429 24894 ft 432 kts 342°
2026-05-06 12:39 -22.10786 -43.33327 25021 ft 437 kts 342°
2026-05-06 12:40 -22.07848 -43.34231 25153 ft 442 kts 342°
2026-05-06 12:40 -22.04885 -43.35142 25281 ft 447 kts 342°
2026-05-06 12:40 -22.01882 -43.36064 25404 ft 451 kts 342°
2026-05-06 12:40 -21.98839 -43.37000 25540 ft 456 kts 342°
2026-05-06 12:41 -21.95782 -43.37939 25664 ft 460 kts 342°
2026-05-06 12:41 -21.92686 -43.38889 25790 ft 464 kts 342°
2026-05-06 12:41 -21.89552 -43.39850 25914 ft 468 kts 342°
2026-05-06 12:41 -21.86419 -43.40811 26050 ft 472 kts 342°
2026-05-06 12:42 -21.83260 -43.41853 26175 ft 475 kts 338°
2026-05-06 12:42 -21.80200 -43.43196 26292 ft 477 kts 332°
2026-05-06 12:42 -21.77266 -43.44884 26419 ft 478 kts 327°
2026-05-06 12:42 -21.74398 -43.46717 26554 ft 481 kts 327°
2026-05-06 12:43 -21.71514 -43.48566 26682 ft 484 kts 327°
2026-05-06 12:43 -21.68602 -43.50415 26813 ft 487 kts 327°
2026-05-06 12:43 -21.65664 -43.52262 26936 ft 490 kts 327°
2026-05-06 12:43 -21.62711 -43.54105 27073 ft 492 kts 327°
2026-05-06 12:44 -21.59742 -43.55953 27193 ft 494 kts 327°
2026-05-06 12:44 -21.56803 -43.57783 27325 ft 496 kts 327°
2026-05-06 12:44 -21.53780 -43.59661 27482 ft 498 kts 327°
2026-05-06 12:44 -21.50758 -43.61533 27748 ft 500 kts 327°
2026-05-06 12:45 -21.47782 -43.63376 28024 ft 502 kts 327°
2026-05-06 12:45 -21.44707 -43.65279 28292 ft 504 kts 327°
2026-05-06 12:45 -21.38596 -43.69061 28773 ft 509 kts 327°
2026-05-06 12:46 -21.35520 -43.70965 29000 ft 511 kts 327°
2026-05-06 12:46 -21.32443 -43.72868 29207 ft 513 kts 327°
2026-05-06 12:46 -21.29341 -43.74784 29402 ft 515 kts 327°
2026-05-06 12:46 -21.26245 -43.76697 29713 ft 515 kts 326°
2026-05-06 12:47 -21.23169 -43.78651 30026 ft 513 kts 325°
2026-05-06 12:47 -21.20110 -43.80645 30339 ft 513 kts 325°
2026-05-06 12:47 -21.17073 -43.82646 30596 ft 512 kts 324°
2026-05-06 12:47 -21.14047 -43.84640 30817 ft 512 kts 324°
2026-05-06 12:48 -21.11010 -43.86633 31013 ft 512 kts 324°
2026-05-06 12:48 -21.07928 -43.88648 31194 ft 513 kts 324°
2026-05-06 12:48 -21.04884 -43.90631 31391 ft 513 kts 324°
2026-05-06 12:48 -21.01829 -43.92617 31558 ft 513 kts 324°
2026-05-06 12:49 -20.98786 -43.94594 31757 ft 513 kts 324°
2026-05-06 12:49 -20.95737 -43.96573 31918 ft 513 kts 324°
2026-05-06 12:49 -20.92689 -43.98552 32032 ft 515 kts 324°
2026-05-06 12:50 -20.86524 -44.02554 32199 ft 518 kts 324°
2026-05-06 12:50 -20.80341 -44.06563 32264 ft 521 kts 324°
2026-05-06 12:51 -20.74129 -44.10596 32268 ft 524 kts 324°
2026-05-06 12:51 -20.68906 -44.14015 32272 ft 527 kts 324°
2026-05-06 12:52 -20.62683 -44.18070 32251 ft 525 kts 324°
2026-05-06 12:52 -20.56443 -44.22082 32254 ft 523 kts 324°
2026-05-06 12:53 -20.50219 -44.26073 32257 ft 524 kts 324°
2026-05-06 12:53 -20.43928 -44.30112 32256 ft 525 kts 324°
2026-05-06 12:54 -20.37663 -44.34139 32254 ft 526 kts 324°
2026-05-06 12:54 -20.31400 -44.38169 32246 ft 527 kts 324°
2026-05-06 12:55 -20.25106 -44.42214 32239 ft 528 kts 324°
2026-05-06 12:55 -20.18814 -44.46252 32242 ft 528 kts 324°
2026-05-06 12:56 -20.12526 -44.50287 32243 ft 528 kts 324°
2026-05-06 12:56 -20.06184 -44.54349 32226 ft 529 kts 324°
2026-05-06 12:57 -19.99864 -44.58394 32234 ft 529 kts 324°
2026-05-06 12:57 -19.93554 -44.62428 32228 ft 530 kts 324°
2026-05-06 12:58 -19.87232 -44.66468 32230 ft 530 kts 324°
2026-05-06 12:58 -19.80879 -44.70524 32224 ft 530 kts 324°
2026-05-06 12:59 -19.74554 -44.74558 32221 ft 531 kts 324°
2026-05-06 12:59 -19.68233 -44.78586 32213 ft 531 kts 324°
2026-05-06 13:00 -19.61929 -44.82600 32216 ft 531 kts 324°
2026-05-06 13:00 -19.55538 -44.86667 32213 ft 532 kts 324°
2026-05-06 13:01 -19.49236 -44.90671 32209 ft 532 kts 324°
2026-05-06 13:01 -19.42944 -44.94662 32220 ft 533 kts 324°
2026-05-06 13:02 -19.36519 -44.98735 32222 ft 533 kts 324°
2026-05-06 13:02 -19.30564 -45.02509 32194 ft 534 kts 324°
2026-05-06 13:03 -19.24184 -45.06549 32214 ft 534 kts 324°
2026-05-06 13:03 -19.17797 -45.10589 32215 ft 535 kts 324°
2026-05-06 13:04 -19.11399 -45.14632 32206 ft 536 kts 324°
2026-05-06 13:04 -19.05014 -45.18663 32201 ft 536 kts 324°
2026-05-06 13:05 -18.98607 -45.22705 32210 ft 536 kts 324°
2026-05-06 13:05 -18.92194 -45.26746 32210 ft 537 kts 324°
2026-05-06 13:06 -18.85795 -45.30776 32201 ft 538 kts 324°
2026-05-06 13:06 -18.79361 -45.34824 32210 ft 538 kts 324°
2026-05-06 13:07 -18.72918 -45.38874 32210 ft 539 kts 324°
2026-05-06 13:07 -18.66471 -45.42922 32205 ft 539 kts 324°
2026-05-06 13:08 -18.60012 -45.46975 32203 ft 540 kts 324°
2026-05-06 13:08 -18.53538 -45.51034 32210 ft 541 kts 324°
2026-05-06 13:09 -18.47070 -45.55086 32206 ft 542 kts 324°
2026-05-06 13:09 -18.40784 -45.59360 32206 ft 537 kts 317°
2026-05-06 13:10 -18.34812 -45.64072 32210 ft 537 kts 317°
2026-05-06 13:10 -18.28836 -45.68809 32208 ft 538 kts 317°
2026-05-06 13:11 -18.22820 -45.73519 32207 ft 539 kts 317°
2026-05-06 13:11 -18.16799 -45.78206 32208 ft 539 kts 317°
2026-05-06 13:12 -18.10766 -45.82899 32203 ft 539 kts 317°
2026-05-06 13:12 -18.04738 -45.87587 32202 ft 539 kts 317°
2026-05-06 13:13 -17.98712 -45.92271 32203 ft 539 kts 317°
2026-05-06 13:13 -17.92677 -45.96959 32200 ft 539 kts 317°
2026-05-06 13:14 -17.86650 -46.01637 32198 ft 539 kts 317°
2026-05-06 13:14 -17.80602 -46.06325 32195 ft 540 kts 317°
2026-05-06 13:15 -17.74599 -46.10971 32192 ft 540 kts 317°
2026-05-06 13:15 -17.68571 -46.15635 32186 ft 540 kts 317°
2026-05-06 13:16 -17.62518 -46.20314 32186 ft 540 kts 317°
2026-05-06 13:16 -17.56487 -46.24974 32186 ft 540 kts 317°
2026-05-06 13:17 -17.50437 -46.29644 32189 ft 540 kts 317°
2026-05-06 13:17 -17.44370 -46.34324 32185 ft 540 kts 317°
2026-05-06 13:18 -17.38319 -46.38987 32188 ft 540 kts 317°
2026-05-06 13:18 -17.32265 -46.43648 32185 ft 541 kts 318°
2026-05-06 13:19 -17.26215 -46.48303 32178 ft 541 kts 318°
2026-05-06 13:19 -17.20135 -46.52978 32177 ft 541 kts 318°
2026-05-06 13:20 -17.14069 -46.57637 32192 ft 541 kts 317°
2026-05-06 13:20 -17.08280 -46.62567 32196 ft 536 kts 313°
2026-05-06 13:21 -17.02620 -46.67662 32189 ft 536 kts 313°
2026-05-06 13:21 -16.96975 -46.72731 32186 ft 536 kts 313°
2026-05-06 13:22 -16.91299 -46.77789 32186 ft 536 kts 314°
2026-05-06 13:22 -16.85624 -46.82827 32191 ft 535 kts 314°
2026-05-06 13:23 -16.79961 -46.87852 32191 ft 535 kts 314°
2026-05-06 13:23 -16.74285 -46.92888 32181 ft 535 kts 314°
2026-05-06 13:24 -16.68622 -46.97908 32194 ft 534 kts 314°
2026-05-06 13:24 -16.62966 -47.02918 32194 ft 534 kts 314°
2026-05-06 13:25 -16.57303 -47.07931 32196 ft 534 kts 314°
2026-05-06 13:25 -16.51622 -47.12955 32190 ft 534 kts 314°
2026-05-06 13:26 -16.45975 -47.17946 32195 ft 534 kts 314°
2026-05-06 13:26 -16.40305 -47.22953 32190 ft 534 kts 314°
2026-05-06 13:27 -16.34920 -47.28233 32194 ft 529 kts 308°
2026-05-06 13:27 -16.29772 -47.33700 32194 ft 529 kts 308°
2026-05-06 13:28 -16.24607 -47.39171 32189 ft 529 kts 309°
2026-05-06 13:28 -16.19430 -47.44607 32191 ft 529 kts 309°
2026-05-06 13:29 -16.14244 -47.50032 32188 ft 529 kts 309°
2026-05-06 13:29 -16.09089 -47.55424 32189 ft 528 kts 309°
2026-05-06 13:30 -16.03878 -47.60873 32194 ft 528 kts 309°
2026-05-06 13:30 -15.98722 -47.66259 32218 ft 528 kts 309°
2026-05-06 13:31 -15.93553 -47.71657 32251 ft 528 kts 309°
2026-05-06 13:31 -15.89202 -47.76198 32265 ft 528 kts 309°
2026-05-06 13:32 -15.83179 -47.82477 32289 ft 528 kts 309°
2026-05-06 13:32 -15.78847 -47.86985 32294 ft 528 kts 309°
2026-05-06 13:33 -15.73641 -47.92401 32277 ft 529 kts 309°
2026-05-06 13:33 -15.68443 -47.97807 32252 ft 529 kts 309°
2026-05-06 13:34 -15.63259 -48.03195 32226 ft 529 kts 309°
2026-05-06 13:34 -15.58045 -48.08609 32183 ft 529 kts 309°
2026-05-06 13:35 -15.52855 -48.13997 32172 ft 528 kts 309°
2026-05-06 13:35 -15.47651 -48.19379 32164 ft 529 kts 310°
2026-05-06 13:36 -15.42262 -48.24578 32153 ft 531 kts 312°
2026-05-06 13:36 -15.36791 -48.29707 32167 ft 530 kts 313°
2026-05-06 13:37 -15.31335 -48.34873 32169 ft 530 kts 312°
2026-05-06 13:37 -15.26039 -48.39930 32161 ft 531 kts 312°
2026-05-06 13:38 -15.20557 -48.45165 32159 ft 532 kts 312°
2026-05-06 13:38 -15.15121 -48.50348 32152 ft 532 kts 312°
2026-05-06 13:39 -15.09676 -48.55532 32148 ft 532 kts 312°
2026-05-06 13:39 -15.04247 -48.60700 32153 ft 531 kts 312°
2026-05-06 13:40 -14.98780 -48.65873 32149 ft 531 kts 313°
2026-05-06 13:40 -14.93299 -48.70998 32145 ft 531 kts 313°
2026-05-06 13:41 -14.87817 -48.76117 32140 ft 531 kts 313°
2026-05-06 13:41 -14.82331 -48.81245 32148 ft 532 kts 313°
2026-05-06 13:42 -14.76852 -48.86369 32134 ft 532 kts 313°
2026-05-06 13:42 -14.71364 -48.91498 32139 ft 532 kts 313°
2026-05-06 13:43 -14.65861 -48.96637 32133 ft 532 kts 313°
2026-05-06 13:43 -14.60421 -49.01712 32134 ft 531 kts 313°
2026-05-06 13:44 -14.54931 -49.06831 32129 ft 530 kts 314°
2026-05-06 13:44 -14.49420 -49.11966 32130 ft 530 kts 314°
2026-05-06 13:45 -14.43969 -49.17042 32125 ft 529 kts 314°
2026-05-06 13:45 -14.35773 -49.24668 32120 ft 529 kts 314°
2026-05-06 13:46 -14.30336 -49.29722 32117 ft 529 kts 314°
2026-05-06 13:46 -14.24868 -49.34802 32117 ft 529 kts 314°
2026-05-06 13:47 -14.19354 -49.39920 32108 ft 529 kts 314°
2026-05-06 13:47 -14.13879 -49.44999 32112 ft 529 kts 314°
2026-05-06 13:48 -14.08455 -49.50029 32100 ft 529 kts 314°
2026-05-06 13:48 -14.02979 -49.55103 32107 ft 529 kts 314°
2026-05-06 13:49 -13.97436 -49.60117 32101 ft 529 kts 315°
2026-05-06 13:49 -13.91865 -49.65060 32100 ft 529 kts 315°
2026-05-06 13:50 -13.86293 -49.70011 32099 ft 529 kts 315°
2026-05-06 13:50 -13.80724 -49.74977 32100 ft 529 kts 315°
2026-05-06 13:51 -13.75172 -49.79932 32095 ft 529 kts 315°
2026-05-06 13:51 -13.69610 -49.84892 32091 ft 528 kts 316°
2026-05-06 13:52 -13.64066 -49.89832 32098 ft 528 kts 316°
2026-05-06 13:52 -13.58505 -49.94783 32088 ft 528 kts 316°
2026-05-06 13:53 -13.52950 -49.99724 32095 ft 528 kts 316°
2026-05-06 13:53 -13.47455 -50.04610 32095 ft 528 kts 316°
2026-05-06 13:54 -13.41834 -50.09605 32099 ft 528 kts 316°
2026-05-06 13:54 -13.36287 -50.14532 32091 ft 528 kts 316°
2026-05-06 13:55 -13.30740 -50.19455 32089 ft 527 kts 316°
2026-05-06 13:55 -13.25189 -50.24378 32095 ft 527 kts 316°
2026-05-06 13:56 -13.19649 -50.29290 32087 ft 527 kts 316°
2026-05-06 13:56 -13.14096 -50.34207 32100 ft 526 kts 316°
2026-05-06 13:57 -13.08544 -50.39118 32076 ft 526 kts 316°
2026-05-06 13:57 -13.03004 -50.44018 32082 ft 525 kts 316°
2026-05-06 13:58 -12.97476 -50.48905 32070 ft 524 kts 317°
2026-05-06 13:58 -12.91952 -50.53786 32069 ft 524 kts 317°
2026-05-06 13:59 -12.86439 -50.58654 32085 ft 523 kts 317°
2026-05-06 13:59 -12.80925 -50.63520 32061 ft 522 kts 317°
2026-05-06 14:00 -12.75424 -50.68371 32079 ft 522 kts 317°
2026-05-06 14:00 -12.69916 -50.73227 32078 ft 521 kts 317°
2026-05-06 14:01 -12.64431 -50.78058 32078 ft 521 kts 317°
2026-05-06 14:01 -12.58938 -50.82894 32080 ft 520 kts 317°
2026-05-06 14:02 -12.53448 -50.87726 32074 ft 520 kts 317°
2026-05-06 14:02 -12.47961 -50.92551 32073 ft 520 kts 317°
2026-05-06 14:03 -12.42519 -50.97334 32072 ft 519 kts 317°
2026-05-06 14:03 -12.37008 -51.02175 32076 ft 519 kts 317°
2026-05-06 14:04 -12.31556 -51.06962 32066 ft 519 kts 317°
2026-05-06 14:04 -12.26053 -51.11791 32077 ft 519 kts 317°
2026-05-06 14:05 -12.20594 -51.16578 32089 ft 519 kts 317°
2026-05-06 14:05 -12.15085 -51.21404 32085 ft 519 kts 317°
2026-05-06 14:06 -12.09638 -51.26172 32080 ft 519 kts 317°
2026-05-06 14:06 -12.04178 -51.30950 32086 ft 519 kts 317°
2026-05-06 14:07 -11.98688 -51.35752 32082 ft 519 kts 318°
2026-05-06 14:07 -11.93210 -51.40542 32083 ft 519 kts 318°
2026-05-06 14:08 -11.87735 -51.45326 32080 ft 518 kts 318°
2026-05-06 14:08 -11.82239 -51.50126 32082 ft 518 kts 318°
2026-05-06 14:09 -11.76768 -51.54902 32080 ft 518 kts 318°
2026-05-06 14:09 -11.71291 -51.59679 32079 ft 517 kts 318°
2026-05-06 14:10 -11.65836 -51.64436 32081 ft 517 kts 318°
2026-05-06 14:10 -11.60372 -51.69198 32081 ft 516 kts 318°
2026-05-06 14:11 -11.54898 -51.73966 32076 ft 516 kts 318°
2026-05-06 14:11 -11.49439 -51.78719 32073 ft 516 kts 318°
2026-05-06 14:12 -11.43985 -51.83464 32077 ft 517 kts 318°
2026-05-06 14:12 -11.38510 -51.88226 32073 ft 517 kts 318°
2026-05-06 14:13 -11.33040 -51.92982 32074 ft 517 kts 318°
2026-05-06 14:13 -11.27577 -51.97727 32068 ft 517 kts 319°
2026-05-06 14:14 -11.22058 -52.02435 32072 ft 517 kts 319°
2026-05-06 14:14 -11.17466 -52.06311 32073 ft 517 kts 319°
2026-05-06 14:15 -11.11937 -52.10984 32068 ft 517 kts 319°
2026-05-06 14:15 -11.06404 -52.15668 32064 ft 516 kts 319°
2026-05-06 14:16 -11.00902 -52.20330 32073 ft 516 kts 319°
2026-05-06 14:16 -10.95391 -52.24999 32075 ft 516 kts 319°
2026-05-06 14:17 -10.89871 -52.29671 32067 ft 515 kts 319°
2026-05-06 14:17 -10.84360 -52.34332 32070 ft 515 kts 319°
2026-05-06 14:18 -10.78868 -52.38977 32068 ft 515 kts 319°
2026-05-06 14:18 -10.73347 -52.43642 32063 ft 514 kts 319°
2026-05-06 14:19 -10.67851 -52.48285 32063 ft 514 kts 319°
2026-05-06 14:19 -10.62348 -52.52931 32059 ft 514 kts 319°
2026-05-06 14:20 -10.56841 -52.57578 32060 ft 514 kts 319°
2026-05-06 14:20 -10.51338 -52.62219 32055 ft 514 kts 319°
2026-05-06 14:21 -10.45829 -52.66864 32062 ft 514 kts 319°
2026-05-06 14:21 -10.40327 -52.71501 32051 ft 515 kts 319°
2026-05-06 14:22 -10.34801 -52.76155 32053 ft 515 kts 319°
2026-05-06 14:22 -10.29296 -52.80789 32058 ft 514 kts 319°
2026-05-06 14:23 -10.23802 -52.85413 32056 ft 514 kts 319°
2026-05-06 14:23 -10.18291 -52.90048 32050 ft 514 kts 319°
2026-05-06 14:24 -10.12771 -52.94689 32051 ft 514 kts 319°
2026-05-06 14:24 -10.07271 -52.99311 32051 ft 514 kts 319°
2026-05-06 14:25 -10.01762 -53.03939 32054 ft 514 kts 319°
2026-05-06 14:25 -9.96259 -53.08561 32048 ft 514 kts 319°
2026-05-06 14:26 -9.90742 -53.13190 32056 ft 514 kts 319°
2026-05-06 14:26 -9.85400 -53.17987 32052 ft 513 kts 316°
2026-05-06 14:27 -9.80168 -53.22967 32047 ft 513 kts 316°
2026-05-06 14:27 -9.74960 -53.27869 32048 ft 514 kts 316°
2026-05-06 14:28 -9.69690 -53.32768 32049 ft 514 kts 316°
2026-05-06 14:28 -9.64428 -53.37649 32048 ft 513 kts 316°
2026-05-06 14:29 -9.59178 -53.42522 32050 ft 513 kts 316°
2026-05-06 14:29 -9.53934 -53.47390 32047 ft 513 kts 316°
2026-05-06 14:30 -9.48665 -53.52273 32053 ft 512 kts 316°
2026-05-06 14:30 -9.43429 -53.57125 32052 ft 512 kts 316°
2026-05-06 14:31 -9.38172 -53.61996 32047 ft 512 kts 316°
2026-05-06 14:31 -9.32915 -53.66868 32052 ft 511 kts 316°
2026-05-06 14:32 -9.27675 -53.71720 32049 ft 511 kts 316°
2026-05-06 14:32 -9.22433 -53.76571 32048 ft 511 kts 316°
2026-05-06 14:33 -9.17179 -53.81432 32048 ft 511 kts 316°
2026-05-06 14:33 -9.11936 -53.86282 32052 ft 511 kts 316°
2026-05-06 14:34 -9.06703 -53.91119 32055 ft 511 kts 316°
2026-05-06 14:34 -9.01429 -53.95992 32058 ft 512 kts 316°
2026-05-06 14:35 -8.96183 -54.00837 32048 ft 512 kts 316°
2026-05-06 14:35 -8.90917 -54.05699 32057 ft 512 kts 317°
2026-05-06 14:36 -8.85649 -54.10561 32059 ft 513 kts 317°
2026-05-06 14:36 -8.80390 -54.15413 32054 ft 513 kts 317°
2026-05-06 14:37 -8.75109 -54.20282 32055 ft 513 kts 317°
2026-05-06 14:37 -8.69830 -54.25149 32054 ft 513 kts 317°
2026-05-06 14:38 -8.64569 -54.29996 32053 ft 513 kts 317°
2026-05-06 14:38 -8.59384 -54.34771 32055 ft 513 kts 317°
2026-05-06 14:39 -8.54106 -54.39631 32055 ft 513 kts 317°
2026-05-06 14:39 -8.48830 -54.44487 32051 ft 513 kts 317°
2026-05-06 14:40 -8.43547 -54.49348 32054 ft 513 kts 317°
2026-05-06 14:40 -8.38280 -54.54192 32055 ft 513 kts 317°
2026-05-06 14:41 -8.33002 -54.59043 32055 ft 513 kts 317°
2026-05-06 14:41 -8.27727 -54.63889 32054 ft 513 kts 317°
2026-05-06 14:42 -8.22445 -54.68741 32054 ft 513 kts 317°
2026-05-06 14:42 -8.17161 -54.73595 32053 ft 513 kts 317°
2026-05-06 14:43 -8.11880 -54.78442 32055 ft 513 kts 317°
2026-05-06 14:43 -8.06595 -54.83292 32055 ft 514 kts 317°
2026-05-06 14:44 -8.01313 -54.88136 32049 ft 514 kts 317°
2026-05-06 14:45 -7.93386 -54.95404 32056 ft 514 kts 317°
2026-05-06 14:45 -7.88086 -55.00259 32049 ft 514 kts 317°
2026-05-06 14:46 -7.82795 -55.05107 32051 ft 513 kts 317°
2026-05-06 14:46 -7.77504 -55.09952 32050 ft 513 kts 317°
2026-05-06 14:47 -7.72194 -55.14813 32054 ft 513 kts 317°
2026-05-06 14:47 -7.66943 -55.19618 32049 ft 514 kts 317°
2026-05-06 14:48 -7.61649 -55.24461 32055 ft 514 kts 317°
2026-05-06 14:48 -7.56337 -55.29319 32048 ft 514 kts 317°
2026-05-06 14:49 -7.51038 -55.34164 32049 ft 514 kts 317°
2026-05-06 14:49 -7.45783 -55.38967 32050 ft 514 kts 317°
2026-05-06 14:50 -7.40487 -55.43805 32048 ft 514 kts 317°
2026-05-06 14:50 -7.35178 -55.48648 32045 ft 514 kts 317°
2026-05-06 14:51 -7.29842 -55.53513 32052 ft 514 kts 317°
2026-05-06 14:51 -7.24536 -55.58256 32051 ft 514 kts 319°
2026-05-06 14:52 -7.19041 -55.62960 32053 ft 514 kts 320°
2026-05-06 14:52 -7.13623 -55.67582 32066 ft 514 kts 320°
2026-05-06 14:53 -7.08178 -55.72257 32055 ft 515 kts 319°
2026-05-06 14:53 -7.02743 -55.76938 32058 ft 516 kts 319°
2026-05-06 14:54 -6.97294 -55.81634 32058 ft 516 kts 319°
2026-05-06 14:54 -6.91851 -55.86320 32062 ft 516 kts 319°
2026-05-06 14:55 -6.87310 -55.90229 32059 ft 516 kts 319°
2026-05-06 14:55 -6.81856 -55.94921 32062 ft 516 kts 320°
2026-05-06 14:56 -6.76411 -55.99604 32062 ft 515 kts 320°
2026-05-06 14:56 -6.71114 -56.04159 32062 ft 515 kts 320°
2026-05-06 14:57 -6.65612 -56.08887 32061 ft 515 kts 320°
2026-05-06 14:57 -6.60166 -56.13567 32059 ft 515 kts 320°
2026-05-06 14:58 -6.54724 -56.18243 32060 ft 516 kts 320°